Hovedside
METAR-TAF:

METAR-TAF

Lufthavner :

Vasa lufthavn

Vasa, Finland

breddegrad: 63-03N, lengdegrad: 021-46E, høyde over havet: 4 m

Gjeldene værobservasjon

Denne rapporten ble laget for 34 minutter siden, klokken 09:50 UTC
Vind 4 kt fra Sør-sørøst
Temperatur -3°C
Luftfuktighet 86%
Trykk 1041 hPa
Sikt 10 km eller mer
ingen skyer under 1500 m og ingen bygeskyer

METAR: EFVA 190950Z AUTO 16004KT CAVOK M03/M05 Q1041

Tid: 12:24 (10:24 UTC)

Varsel

Denne rapporten ble laget for 1 time og 53 minutter siden, klokken 08:31 UTC
Varsel gyldig fra 19. klokken 09 UTC til 20. klokken 09 UTC
Vind 3 kt fra Sør-sørøst
Sikt 10 km eller mer
ingen skyer under 1500 m og ingen bygeskyer
Sannsynlighet 30%
fra 19. klokken 21 UTC til 20. klokken 02 UTC
Brutte skyer i en høyde av 1000 ft

TAF: EFVA 190831Z 1909/2009 16003KT CAVOK PROB30 1921/2002 BKN010

Værobservasjoner og værvarsel for over 4000 flyplasser (METAR- og TAF-rapporter).

Tilgjengelige stasjoner er representert av de røde og gule prikkene på kartet.

Hold musepekeren over prikken for å se navnet på stasjonen.

Klikk så for å se værobservasjoner og -varsler.

For å forandre kartet kan du klikke på den grønne knappen med svart kryss for å zoome inn, på den grønne knappen med strek for å zoome ut, eller på de grønne pilene for å se tilstøtende kart.


METAR-TAF: